User: anonymous   Login
Location: Caltech
(34.1382°N, 118.1253°W)
Time: 18:54:06
(UTC-07:00)
Language:

Lacrosse 5 rocket - Orbit

View from above orbital plane
View from above orbital plane
View from above satellite
View from above satellite

Ground track
Ground track

The orbit data is extracted from the following two-line orbital elements,

1 28647U 05016B   17289.78334328 0.00000700  00000-0  39801-4 0    09
2 28647  56.9975 241.8044 0133004 184.3080 175.6920 15.05146671    04
Epoch (UTC): 16 October 2017 18:48:00
Eccentricity: 0.0133004
inclination: 56.9975°
perigee height: 459 km
apogee height: 643 km
right ascension of ascending node: 241.8044°
argument of perigee: 184.3080°
revolutions per day: 15.05146671
mean anomaly at epoch: 175.6920°
orbit number at epoch: 0

The dashed part of the orbit path shows where the satellite is in the earth's shadow,  

DLR